Powrót do katalogu

USA 207

AktywnyMilitariaGEO
NORAD 35815·PAYLOAD·🇺🇸 United States

Wystrzelony Sep 8, 2009 z Cape Canaveral Space Force Station

Loading…

TLE

ŚwieżeSource: Mike McCants

Epoka: Sep 14, 2026, 05:30 UTC

1 35815U 09047A   26257.22929376  .00000000  00000-0  00000-0 0    07
2 35815   1.4259  87.7532 0005954 299.6138  60.3314  1.00263576  5291

Śledź USA 207 w czasie rzeczywistym z AllMySat

Download on the App Store